Home   Weather   Kyoto   Past weeks
Flag for Japan

Past Weather in Kyoto, Japan — Yesterday and Last 2 Weeks

Now
46 °F

Partly sunny.


Feels Like: 41 °F
Forecast: 53 / 32 °F
Wind: 12 mph from North

Location: Osaka International Airport

Current Time: Jan 22, 2019 at 5:47:00 pm

Latest Report: Jan 22, 2019 at 5:00 pm


Visibility: N/A

Pressure: 30.01 "Hg

Humidity: 57%

Dew Point: 32 °F

Location of KyotoLocation

Past Weather in Kyoto — Graph

°F

Kyoto Temperature Yesterday

Maximum temperature yesterday: 50 °F (at 1:00 pm)
Minimum temperature yesterday: 36 °F (at 7:00 am)
Average temperature yesterday: 45 °F

High & Low Weather Summary for the Past Weeks

 TemperatureHumidityPressure
High54 °F (Jan 11, 1:00 pm)100% (Jan 16, 5:00 am)30.36 "Hg (Jan 16, 5:00 am)
Low30 °F (Jan 10, 5:00 am)38% (Jan 13, 3:00 pm)29.83 "Hg (Jan 20, 1:00 pm)
Average44 °F66%30.11 "Hg
* Reported Jan 7 4:00 pm — Jan 22 4:00 pm, Kyoto. Weather by CustomWeather, © 2019

Note: Actual official high and low records may vary slightly from our data, if they occured in-between our weather recording intervals... More about our weather records

Advertising

Kyoto Weather History for the Previous 24 Hours

Scroll right to see more
 ConditionsComfort  
Time TempWeatherWind HumidityBarometerVisibility
4:00 pm
Tue, Jan 22
48 °FPartly sunny.12 mph54%30.01 "HgN/A
3:00 pm48 °FScattered clouds.10 mph50%29.98 "HgN/A
2:00 pm54 °FPartly sunny.17 mph44%29.98 "HgN/A
1:00 pm52 °FPartly sunny.13 mph41%29.98 "HgN/A
12:00 pm50 °FPartly sunny.8 mph50%29.98 "HgN/A
11:00 am46 °FScattered clouds.8 mph57%30.01 "HgN/A
10:00 am46 °FPassing clouds.5 mph57%30.01 "HgN/A
9:00 am43 °FPassing clouds.7 mph66%30.01 "HgN/A
8:00 am39 °FPassing clouds.8 mph70%29.98 "HgN/A
7:00 am37 °FPassing clouds.7 mph70%29.98 "HgN/A
6:00 am37 °FPassing clouds.6 mph75%29.98 "HgN/A
5:00 am37 °FPassing clouds.6 mph75%29.98 "HgN/A
8:00 pm
Mon, Jan 21
45 °FPassing clouds.6 mph49%29.98 "HgN/A
7:00 pm46 °FPassing clouds.8 mph46%29.98 "HgN/A
6:00 pm46 °FPassing clouds.3 mph50%29.98 "HgN/A
5:00 pm48 °FScattered clouds.9 mph46%29.95 "HgN/A
Weather by CustomWeather, © 2019

See weather overview